Regional Weather Roundup
Issued by NWS

Home | Current Version | Previous Version | Text Only | Print | Product List | Glossary Off
Versions: 1 2 3 4 5 6 7 8 9 10 11 12 13 14 15 16 17 18 19 20 21 22 23 24 25 26 27 28 29 30 31 32 33 34 35 36 37 38 39 40 41 42 43 44 45 46 47 48 49 50

000
ASUS43 KLOT 182310
RWRIL

ILLINOIS REGIONAL WEATHER ROUNDUP
NATIONAL WEATHER SERVICE CHICAGO/ROMEOVILLE IL
600 PM CDT FRI APR 18 2014

NOTE: "FAIR" INDICATES FEW OR NO CLOUDS BELOW 12,000 FEET WITH NO
SIGNIFICANT WEATHER AND/OR OBSTRUCTIONS TO VISIBILITY.

* THESE STATIONS ARE NOT UNDER NWS QUALITY CONTROL. THEY ALSO MAY NOT
  REPORT WEATHER SUCH AS PRECIPITATION OR FOG.

ILZ001-002-007-009-015-016-024-190000-
NORTHWEST ILLINOIS

CITY           SKY/WX    TMP DP  RH WIND       PRES   REMARKS
MOLINE         SUNNY     63  28  26 E5        30.25F
STERLING*      SUNNY     63  30  29 N3        30.27F
SAVANNA*       SUNNY     60  30  31 SW3       30.27F
$$

ILZ003-004-008-010-011-017-018-190000-
NORTH CENTRAL ILLINOIS

CITY           SKY/WX    TMP DP  RH WIND       PRES   REMARKS
ROCKFORD       SUNNY     60  28  29 N5        30.30F
FREEPORT*      SUNNY     59  28  31 N6        30.31
ROCHELLE*      SUNNY     62  29  28 NE5       30.29S
DE KALB*       SUNNY     58  31  35 NE7       30.29F
PERU*          SUNNY     63  33  32 CALM      30.27S
$$

ILZ005-006-012>014-019>023-190000-
NORTHEAST ILLINOIS

CITY           SKY/WX    TMP DP  RH WIND       PRES   REMARKS
CHICAGO-OHARE  SUNNY     46  31  55 NE14      30.34R
CHICAGO-MIDWAY SUNNY     46  34  62 NE13      30.34R
AURORA         SUNNY     57  37  47 NE16      30.29S
LANSING*       SUNNY     44  33  65 NE12      30.33S
WAUKEGAN       SUNNY     39  29  67 NE12      30.36S WCI  32
DUPAGE AIRPORT SUNNY     51  34  52 NE14      30.30S
KANKAKEE*      SUNNY     55  39  54 NE13G18   30.29R
WHEELING       SUNNY     42  31  64 NE12      30.37S
MORRIS*        SUNNY     59  33  36 NE8       30.28S
ROMEOVILLE*    SUNNY     51  34  52 NE13      30.31S
NORTHERLY ISL    N/A     40  32  73 NE14        N/A
$$

LMZ740>746-190000-
SOUTHERN LAKE MICHIGAN

STATION/POSITION SKY/WX   TEMP    WIND        PRES    VSBY  WAVE
                          AIR SEA DIR/SP/G                  HT/PER
                          (F)     (DEG/KT/KT) (MB)    (MI)  (FT/S)
WAUKEGAN HARBOR            36      40/ 11/ 14 1029.5R
HARRISON CRIB              36      30/ 13/ 15   N/A
BURNHAM HARBOR             39      20/ 13       N/A
CALUMET HARBOR             39      20/ 12/ 15 1028.4R
MICHIGAN CITY              37      20/ 18/ 20   N/A
$$

ILZ025>027-034>036-040-047-049-050-058-095>099-190000-
WEST-CENTRAL ILLINOIS

CITY           SKY/WX    TMP DP  RH WIND       PRES   REMARKS
QUINCY         SUNNY     66  33  29 W3        30.22F
GALESBURG*     SUNNY     64  34  32 NE5       30.24F
MACOMB*        SUNNY     65  29  26 E6        30.26F
JACKSONVILLE*  SUNNY     67  31  26 CALM      30.23F
PITTSFIELD*    SUNNY     68  32  25 E3        30.23F
$$

ILZ028>032-037-038-041>044-048-051>054-059>061-190000-
CENTRAL ILLINOIS

CITY           SKY/WX    TMP DP  RH WIND       PRES   REMARKS
PONTIAC        SUNNY     66  28  24 NE7       30.25F
BLOOMINGTON    SUNNY     64  23  21 NE7       30.25F
DECATUR        SUNNY     67  34  29 NE7       30.23F
PEORIA         SUNNY     65  24  21 E5        30.25F
LACON*         SUNNY     63  33  32 N7        30.25F
LINCOLN*       SUNNY     68  27  21 CALM      30.22F
SPRINGFIELD    SUNNY     69  29  22 N8        30.23F
TAYLORVILLE    SUNNY     64  36  34 N6        30.22F
$$

ILZ033-039-045-046-055>057-062-063-190000-
EAST-CENTRAL ILLINOIS

CITY           SKY/WX    TMP DP  RH WIND       PRES   REMARKS
CHAMPAIGN      SUNNY     68  28  22 N5        30.23F
RANTOUL*       SUNNY     68  24  19 CALM      30.24F
MATTOON        SUNNY     67  39  35 N8        30.22F
PARIS*         SUNNY     67  39  35 N5        30.23F
$$

ILZ079-100>102-190000-
SOUTHWEST ILLINOIS

CITY           SKY/WX    TMP DP  RH WIND       PRES   REMARKS
ALTON          SUNNY     68  34  28 VRB5      30.22F
BELLEVILLE     SUNNY     69  43  39 NE5       30.21F
CAHOKIA*       SUNNY     70  42  36 N6        30.21F
SPARTA*        SUNNY     66  41  39 N7        30.22F
$$

ILZ064>066-069>071-074>076-080>082-084>086-088>090-092>094-190000-
SOUTH-CENTRAL ILLINOIS

CITY           SKY/WX    TMP DP  RH WIND       PRES   REMARKS
CARBONDALE     MOSUNNY   71  42  35 N14G25    30.20F
CAIRO*         SUNNY     75  39  27 NE7       30.18S
MARION         MOSUNNY   70  41  35 N6        30.21S
MT. VERNON     SUNNY     70  41  35 N6        30.22S
CENTRALIA*       N/A     68  38  33 CALM      30.21F
SALEM*         MOSUNNY   70  46  41 N5        30.22S
METROPOLIS*    MOSUNNY   72  33  24 NE7       30.18R
$$

ILZ067-068-072-073-078-083-087-091-190000-
SOUTHEAST ILLINOIS

CITY           SKY/WX    TMP DP  RH WIND       PRES   REMARKS
FAIRFIELD*     SUNNY     70  43  37 N6        30.20F
HARRISBURG*    PTSUNNY   69  43  38 N5        30.22R
ROBINSON*      SUNNY     70  45  40 N6        30.22S
CARMI*         SUNNY     72  44  36 N5        30.20S
$$

ABBREVIATIONS USED IN REMARKS
   TC - TEMPERATURE IN CELSIUS
  WCI - WIND CHILL INDEX
   HX - HEAT INDEX
  VSB - VISIBILITY
$$




USA.gov is the U.S. government's official web portal to all federal, state and local government web resources and services.